[[{"header":{"parameterUnit":"m.s-1","parameterCategory":2,"la1":30.2991,"la2":30.254,"lo1":-89.0895,"lo2":-89.0444,"dy":0.0017,"dx":0.0017,"nx":28,"ny":28,"refTime":"2026-01-02T03:00:00:Z","depth":"0","parameterNumber":2,"parameterNumberName":"U-component_of_CURRENTS"},"data":[0,0,0,0,0,0,0,0,0,0,0,0,0,0,0,0,0,0,0,0,0,0,0,0,0,0,0,0,0,0,0,0,0,0,0,0,0,0,0,0,0,0,0,0,0,0,0,0,0,0,0,0,0,0,0,0,0,0,-0.2572,-0.2572,0,-0.2605,-0.2605,-0.2605,-0.2571,-0.257,-0.2569,-0.2568,-0.2533,-0.2533,-0.2533,0,0,0,0,0,0,0,0,0,0,0,0,0,-0.2484,-0.2485,-0.2571,-0.2572,-0.2573,-0.2605,-0.2605,-0.2605,-0.2571,-0.257,-0.2569,-0.2568,-0.2533,-0.2533,-0.2533,0,0,0,0,0,0,0,0,0,0,0,0,0,-0.2517,-0.2486,-0.2571,-0.2562,-0.2562,-0.2605,-0.2605,-0.2605,-0.2572,-0.257,-0.2568,-0.2567,-0.2533,-0.2533,-0.2533,-0.2566,0,0,-0.2534,-0.2534,0,0,0,0,0,0,0,0,-0.2515,-0.252,-0.2563,-0.2563,-0.2562,-0.2585,-0.2562,-0.259,-0.2572,-0.2565,-0.2568,-0.2566,-0.2547,-0.2546,-0.2553,-0.2564,-0.2563,-0.2534,-0.2534,-0.2534,-0.2534,0,0,0,0,0,0,0,-0.2513,-0.2519,-0.2582,-0.2564,-0.2563,-0.2558,-0.2561,-0.2567,-0.2561,-0.2565,-0.2564,-0.2572,-0.2546,-0.2553,-0.2552,-0.2562,-0.2534,-0.2534,-0.2534,-0.2534,-0.2587,-0.2588,0,0,0,0,0,0,-0.2517,-0.2517,-0.2581,-0.2583,-0.2538,-0.2561,-0.2564,-0.2577,-0.2562,-0.256,-0.2574,-0.2571,-0.2553,-0.2551,-0.255,-0.2572,-0.2534,-0.2534,-0.2534,-0.2585,-0.2587,-0.2588,0,0,0,0,0,0,-0.2515,-0.2522,-0.258,-0.2552,-0.2559,-0.2565,-0.2579,-0.2578,-0.2578,-0.257,-0.2565,-0.2574,-0.2552,-0.255,-0.2558,-0.2571,-0.2534,-0.2534,-0.2584,-0.2586,-0.2588,-0.2627,0,0,0,0,0,0,-0.2512,-0.2521,-0.2527,-0.2553,-0.2561,-0.2608,-0.2581,-0.258,-0.2588,-0.2584,-0.2569,-0.2564,-0.2551,-0.2558,-0.2558,-0.2571,-0.2534,-0.2582,-0.2585,-0.2587,-0.2624,-0.263,-0.2635,0,0,0,0,0,-0.2509,-0.2527,-0.2527,-0.2534,-0.2571,-0.2609,-0.2613,-0.2608,-0.259,-0.2599,-0.2588,-0.2564,-0.2574,-0.256,-0.2559,-0.2572,-0.2581,-0.2584,-0.2587,-0.2621,-0.2629,-0.2635,0,0,0,0,0,0,-0.2488,-0.2526,-0.2526,-0.2553,-0.258,-0.2604,-0.2612,-0.2612,-0.2613,-0.2603,-0.2584,-0.258,-0.2593,-0.2584,-0.2568,-0.2597,-0.2573,-0.2576,-0.26,-0.2606,-0.2612,-0.2603,-0.2534,0,0,0,0,0,-0.249,-0.2509,-0.2547,-0.2565,-0.258,-0.2596,-0.2608,-0.2612,-0.2621,-0.2619,-0.261,-0.2604,-0.261,-0.2607,-0.2611,-0.2628,-0.2597,-0.2637,-0.2643,-0.2647,-0.2642,-0.2624,-0.2627,-0.2598,-0.2598,-0.2598,0,0,-0.2483,-0.2508,-0.2517,-0.2561,-0.2577,-0.2611,-0.2598,-0.2624,-0.2643,-0.2616,-0.2629,-0.2625,-0.262,-0.2638,-0.2643,-0.2628,-0.2637,-0.2651,-0.2655,-0.2647,-0.2627,-0.263,-0.2632,-0.26,-0.26,-0.26,0,0,-0.2491,-0.2507,-0.253,-0.256,-0.2598,-0.2616,-0.2626,-0.2656,-0.2657,-0.2682,-0.2665,-0.2667,-0.2678,-0.2674,-0.2674,-0.2716,-0.2671,-0.2722,-0.2738,-0.2721,-0.2723,-0.2724,-0.2673,-0.2669,-0.2721,-0.2721,-0.2721,0,-0.248,-0.2518,-0.2541,-0.2579,-0.2603,-0.2621,-0.2655,-0.2672,-0.2697,-0.2702,-0.2688,-0.2701,-0.2693,-0.2709,-0.2723,-0.2726,-0.2699,-0.271,-0.2726,-0.2727,-0.2727,-0.2675,-0.267,-0.2723,-0.2723,-0.2723,-0.2723,0,-0.251,-0.2542,-0.256,-0.261,-0.2642,-0.2674,-0.2711,-0.273,-0.2733,-0.2744,-0.2758,-0.2751,-0.2752,-0.2758,-0.2751,-0.2759,-0.2733,-0.2736,-0.2703,-0.2732,-0.2676,-0.267,-0.2727,-0.2726,-0.2725,-0.2725,0,0,-0.2472,-0.2563,-0.2565,-0.2595,-0.2662,-0.2688,-0.2732,-0.2771,-0.2781,-0.2798,-0.2803,-0.2818,-0.2803,-0.2803,-0.2794,-0.278,-0.2754,-0.2761,-0.2759,-0.2699,-0.2691,-0.2579,-0.2561,-0.2762,-0.2762,-0.2762,-0.2645,0,-0.2482,-0.255,-0.2597,-0.2653,-0.269,-0.2733,-0.2768,-0.2804,-0.2819,-0.2828,-0.2825,-0.2827,-0.2825,-0.2817,-0.2809,-0.2772,-0.2744,-0.2784,-0.2682,-0.2678,-0.2566,-0.2553,-0.2443,-0.2321,-0.2639,-0.2638,-0.2637,0,-0.2486,-0.2535,-0.2594,-0.2673,-0.2691,-0.2726,-0.2773,-0.281,-0.284,-0.2848,-0.2855,-0.2848,-0.2838,-0.2826,-0.2771,-0.2798,-0.2746,-0.271,-0.2705,-0.2581,-0.2555,-0.2349,-0.2299,-0.2297,-0.2627,-0.2628,-0.2629,0,-0.2431,-0.2525,-0.2568,-0.2598,-0.2692,-0.2715,-0.2757,-0.2803,-0.2827,-0.2849,-0.2852,-0.285,-0.2827,-0.2791,-0.2722,-0.2748,-0.2635,-0.2661,-0.2505,-0.2496,-0.2369,-0.2348,-0.2293,-0.2606,-0.2607,-0.2607,-0.2607,0,-0.2415,-0.2444,-0.2543,-0.2564,-0.2602,-0.2681,-0.2712,-0.2752,-0.2799,-0.2809,-0.2847,-0.2826,-0.2818,-0.2758,-0.2709,-0.2568,-0.2621,-0.2487,-0.2456,-0.2378,-0.2361,-0.2327,-0.2377,-0.2602,-0.2603,-0.2604,-0.2605,0,-0.2336,-0.2409,-0.2456,-0.2551,-0.2575,-0.2595,-0.2682,-0.2708,-0.2762,-0.2771,-0.2777,-0.2792,-0.2706,-0.2665,-0.2574,-0.2521,-0.2372,-0.2354,-0.2241,-0.2198,-0.2057,-0.2113,-0.203,-0.1971,-0.2167,-0.2163,-0.216,0,-0.2299,-0.2317,-0.2412,-0.244,-0.2478,-0.253,-0.257,-0.2662,-0.2693,-0.2728,-0.272,-0.2661,-0.2562,-0.239,-0.2288,-0.2148,-0.2205,-0.1992,-0.2025,-0.2009,-0.2051,-0.2119,-0.2082,-0.187,-0.1864,-0.186,-0.1857,0,-0.2208,-0.2241,-0.2278,-0.2336,-0.2382,-0.2427,-0.2489,-0.2495,-0.2587,-0.257,-0.2508,-0.2423,-0.2297,-0.2088,-0.194,-0.1866,-0.196,-0.1899,-0.1923,-0.1835,-0.1865,-0.1806,-0.1979,-0.182,-0.1824,-0.1826,-0.1828,-0.183,-0.2113,-0.2113,-0.2163,-0.2204,-0.2256,-0.2258,-0.2186,-0.2251,-0.2204,-0.2083,-0.2197,-0.1969,-0.1956,-0.1707,-0.1642,-0.1538,-0.1646,-0.1518,-0.1589,-0.166,-0.16,-0.1667,-0.1456,-0.1458,-0.1459,-0.146,-0.1461,0,-0.1979,-0.1996,-0.2033,-0.2028,-0.1992,-0.2085,-0.2074,-0.1957,-0.1781,-0.173,-0.1602,-0.1464,-0.1342,-0.1353,-0.1323,-0.1267,-0.1277,-0.1273,-0.137,-0.1347,-0.1416,-0.1399,-0.1116,-0.1116,-0.1116,-0.1116,-0.1116,-0.1116,-0.1909,-0.1883,-0.1904,-0.1763,-0.174,-0.1591,-0.1517,-0.1382,-0.1284,-0.1016,-0.0852,-0.0784,-0.0979,-0.1263,-0.1272,-0.1216,-0.1242,-0.1197,-0.1256,-0.135,-0.138,-0.1409,-0.1403,-0.1126,-0.1126,-0.1121,-0.1121,-0.1122]},{"header":{"parameterUnit":"m.s-1","parameterCategory":2,"la1":30.2991,"la2":30.254,"lo1":-89.0895,"lo2":-89.0444,"dy":0.0017,"dx":0.0017,"nx":28,"ny":28,"refTime":"2026-01-02T03:00:00:Z","depth":"0","parameterNumber":3,"parameterNumberName":"V-component_of_CURRENTS"},"data":[0,0,0,0,0,0,0,0,0,0,0,0,0,0,0,0,0,0,0,0,0,0,0,0,0,0,0,0,0,0,0,0,0,0,0,0,0,0,0,0,0,0,0,0,0,0,0,0,0,0,0,0,0,0,0,0,0,0,-0.013,-0.013,0,-0.0046,-0.0045,-0.0044,0.002,0.0021,0.0021,0.0021,0.0158,0.0161,0.0164,0,0,0,0,0,0,0,0,0,0,0,0,0,-0.018,-0.0179,-0.013,-0.013,-0.0129,-0.0046,-0.0045,-0.0044,0.002,0.0021,0.0021,0.0022,0.0157,0.0161,0.0165,0,0,0,0,0,0,0,0,0,0,0,0,0,-0.0131,-0.0179,-0.0131,-0.0088,-0.0084,-0.0047,-0.0045,-0.0043,0.002,0.0021,0.0021,0.0022,0.0156,0.0161,0.0165,0.0183,0,0,0.018,0.0182,0,0,0,0,0,0,0,0,-0.0134,-0.0129,-0.0096,-0.0091,-0.0086,-0.0025,-0.0012,0.0034,0.002,-0.0017,0.0022,0.0022,0.01,0.011,0.0126,0.019,0.0196,0.0181,0.0184,0.0186,0.0187,0,0,0,0,0,0,0,-0.0138,-0.0132,-0.0095,-0.0095,-0.0089,-0.0055,-0.0047,-0.0003,0.0039,-0.0014,-0.001,-0.0004,0.0103,0.0121,0.013,0.0198,0.0181,0.0185,0.0188,0.019,0.03,0.03,0,0,0,0,0,0,-0.0156,-0.0136,-0.0098,-0.0093,-0.0112,-0.0055,-0.0046,-0.0043,0.0038,0.005,-0.0004,-0.0001,0.0113,0.0124,0.0135,0.0165,0.0186,0.019,0.0193,0.03,0.03,0.03,0,0,0,0,0,0,-0.0157,-0.0154,-0.0101,-0.0114,-0.0105,-0.0055,-0.0052,-0.0042,-0.0024,0.0044,0.0058,0.0004,0.0114,0.0128,0.0173,0.0171,0.0193,0.0197,0.03,0.03,0.03,0.0223,0,0,0,0,0,0,-0.0159,-0.0155,-0.0161,-0.0115,-0.0105,-0.0089,-0.0052,-0.0041,-0.0022,-0.0017,0.0056,0.0069,0.0115,0.0165,0.0178,0.0178,0.0201,0.03,0.03,0.03,0.0226,0.0221,0.0216,0,0,0,0,0,-0.0161,-0.0177,-0.0162,-0.0157,-0.0114,-0.009,-0.0081,-0.0042,-0.0023,-0.0022,0.0031,0.0067,0.0174,0.0169,0.0184,0.0186,0.03,0.03,0.03,0.0228,0.0222,0.0216,0,0,0,0,0,0,-0.0203,-0.0171,-0.0153,-0.0158,-0.013,-0.008,-0.0077,-0.0049,-0.0007,0.0,0.0067,0.0084,0.0121,0.0164,0.0156,0.0218,0.0243,0.0246,0.0183,0.0178,0.0173,0.0159,0.0205,0,0,0,0,0,-0.0216,-0.0218,-0.0179,-0.0183,-0.0173,-0.0125,-0.0111,-0.0085,-0.0042,-0.0023,0.0028,0.0085,0.0133,0.0162,0.0208,0.0242,0.0296,0.0253,0.0248,0.0244,0.0242,0.0325,0.0328,0.03,0.03,0.03,0,0,-0.0233,-0.0216,-0.0216,-0.0192,-0.0165,-0.016,-0.0115,-0.01,-0.0089,-0.0014,0.0015,0.0067,0.0137,0.0174,0.0195,0.021,0.0279,0.0244,0.0239,0.0241,0.0326,0.0328,0.0331,0.03,0.03,0.03,0,0,-0.0274,-0.0253,-0.027,-0.0252,-0.0223,-0.0191,-0.0191,-0.0145,-0.0118,-0.0085,-0.0027,0.0025,0.0092,0.0147,0.0182,0.018,0.0247,0.0192,0.0162,0.0241,0.0244,0.0248,0.0311,0.0321,0.0193,0.0193,0.0193,0,-0.0297,-0.031,-0.0271,-0.0281,-0.0272,-0.021,-0.0223,-0.0186,-0.0131,-0.0104,-0.0088,0.0029,0.0082,0.0146,0.0141,0.017,0.022,0.0175,0.0235,0.0239,0.0244,0.0309,0.032,0.019,0.019,0.019,0.0191,0,-0.0348,-0.0357,-0.0365,-0.0355,-0.0337,-0.0339,-0.0286,-0.026,-0.0219,-0.0172,-0.0107,-0.0029,0.0043,0.0066,0.0102,0.0161,0.0186,0.0214,0.0246,0.0242,0.0311,0.0324,0.0184,0.0186,0.0187,0.0188,0,0,-0.0405,-0.0404,-0.0406,-0.0415,-0.0378,-0.037,-0.0345,-0.03,-0.0271,-0.0209,-0.0164,-0.0083,-0.003,0.0014,0.0075,0.0141,0.0211,0.0181,0.0187,0.0237,0.0379,0.0425,0.0445,0.0249,0.0252,0.0253,0.041,0,-0.0458,-0.0505,-0.0477,-0.0502,-0.052,-0.0453,-0.0432,-0.0377,-0.0312,-0.0251,-0.0154,-0.0093,-0.0051,-0.0015,0.0057,0.0177,0.0244,0.0165,0.0381,0.0387,0.0424,0.0462,0.054,0.0688,0.0423,0.0426,0.0427,0,-0.0518,-0.0541,-0.0588,-0.0577,-0.0575,-0.0571,-0.0513,-0.0484,-0.0375,-0.0321,-0.0233,-0.0152,-0.0046,-0.0013,0.0188,0.0135,0.0243,0.0334,0.0344,0.0424,0.046,0.0653,0.0724,0.0917,0.0449,0.0447,0.0446,0,-0.059,-0.0612,-0.0654,-0.0654,-0.0632,-0.0626,-0.06,-0.051,-0.0473,-0.0362,-0.031,-0.0176,-0.0089,0.0053,0.0233,0.0215,0.0462,0.0468,0.0613,0.0617,0.0746,0.0758,0.1027,0.061,0.0609,0.0609,0.0608,0,-0.0662,-0.0691,-0.0693,-0.072,-0.0747,-0.0698,-0.0688,-0.0632,-0.0538,-0.0465,-0.0355,-0.0257,-0.0066,0.0098,0.0238,0.0476,0.0474,0.062,0.067,0.072,0.0727,0.095,0.0998,0.0615,0.0613,0.0612,0.0611,0,-0.0737,-0.074,-0.0789,-0.0789,-0.0789,-0.0808,-0.0763,-0.0733,-0.0639,-0.0536,-0.0503,-0.0302,-0.0075,0.0117,0.0379,0.0502,0.083,0.0784,0.0818,0.0868,0.116,0.1197,0.1453,0.1576,0.0968,0.0971,0.0972,0,-0.078,-0.0818,-0.0855,-0.0881,-0.0886,-0.0897,-0.0883,-0.0801,-0.0741,-0.054,-0.0477,-0.0253,-0.0035,0.0343,0.0585,0.0851,0.0965,0.1061,0.1041,0.1207,0.1287,0.1282,0.1366,0.1183,0.1187,0.119,0.1192,0,-0.0859,-0.0871,-0.0911,-0.0968,-0.098,-0.0956,-0.0919,-0.0876,-0.0723,-0.0606,-0.0356,-0.0172,0.0188,0.0552,0.0854,0.1004,0.1208,0.1126,0.1318,0.1495,0.1493,0.1625,0.1029,0.1217,0.1215,0.1213,0.1211,0.121,-0.0903,-0.0952,-0.0997,-0.1037,-0.1022,-0.0931,-0.0853,-0.0761,-0.0608,-0.0308,-0.0214,0.0158,0.0569,0.1024,0.1166,0.1522,0.1435,0.1653,0.169,0.1674,0.1787,0.1226,0.145,0.1449,0.1448,0.1447,0.1446,0,-0.0946,-0.0991,-0.105,-0.1028,-0.0942,-0.0934,-0.0795,-0.0649,-0.0392,-0.0154,0.0126,0.0696,0.1142,0.147,0.1902,0.2096,0.2113,0.2193,0.224,0.2305,0.1859,0.1865,0.2166,0.2166,0.2165,0.2165,0.2165,0.2165,-0.0969,-0.1036,-0.1062,-0.0931,-0.0859,-0.0662,-0.0526,-0.0334,-0.0127,0.0329,0.0693,0.0979,0.1456,0.2127,0.2575,0.2609,0.2799,0.2748,0.2843,0.2566,0.2519,0.2474,0.2497,0.2925,0.2926,0.3306,0.331,0.3313]}],[{"header":{"parameterUnit":"m.s-1","parameterCategory":2,"la1":30.2991,"la2":30.254,"lo1":-89.0895,"lo2":-89.0444,"dy":0.0017,"dx":0.0017,"nx":28,"ny":28,"refTime":"2026-01-02T03:00:00:Z","depth":"2","parameterNumber":2,"parameterNumberName":"U-component_of_CURRENTS"},"data":[0,0,0,0,0,0,0,0,0,0,0,0,0,0,0,0,0,0,0,0,0,0,0,0,0,0,0,0,0,0,0,0,0,0,0,0,0,0,0,0,0,0,0,0,0,0,0,0,0,0,0,0,0,0,0,0,0,0,-0.2531,-0.2531,0,-0.2565,-0.2566,-0.2566,-0.2536,-0.2535,-0.2534,-0.2533,-0.2503,-0.2503,-0.2503,0,0,0,0,0,0,0,0,0,0,0,0,0,-0.2444,-0.2445,-0.2531,-0.2532,-0.2532,-0.2565,-0.2566,-0.2566,-0.2536,-0.2535,-0.2533,-0.2532,-0.2503,-0.2503,-0.2503,0,0,0,0,0,0,0,0,0,0,0,0,0,-0.2478,-0.2446,-0.2531,-0.2523,-0.2523,-0.2565,-0.2566,-0.2566,-0.2536,-0.2535,-0.2533,-0.2532,-0.2503,-0.2503,-0.2503,-0.2534,0,0,-0.2504,-0.2504,0,0,0,0,0,0,0,0,-0.2476,-0.2481,-0.2524,-0.2524,-0.2524,-0.2547,-0.2524,-0.2553,-0.2536,-0.2528,-0.2533,-0.2531,-0.2515,-0.2514,-0.252,-0.2532,-0.2531,-0.2504,-0.2504,-0.2504,-0.2504,0,0,0,0,0,0,0,-0.2474,-0.2479,-0.2542,-0.2525,-0.2525,-0.252,-0.2523,-0.253,-0.2526,-0.2529,-0.2527,-0.2536,-0.2513,-0.252,-0.2519,-0.2531,-0.2504,-0.2504,-0.2504,-0.2504,-0.2558,-0.2559,0,0,0,0,0,0,-0.2477,-0.2477,-0.2541,-0.2543,-0.2499,-0.2523,-0.2526,-0.2539,-0.2527,-0.2525,-0.2537,-0.2535,-0.2521,-0.2519,-0.2518,-0.2543,-0.2504,-0.2504,-0.2504,-0.2557,-0.2559,-0.256,0,0,0,0,0,0,-0.2475,-0.2482,-0.2539,-0.2512,-0.252,-0.2526,-0.2541,-0.254,-0.2542,-0.2535,-0.2531,-0.2539,-0.252,-0.2518,-0.2528,-0.2541,-0.2504,-0.2504,-0.2555,-0.2557,-0.2559,-0.2599,0,0,0,0,0,0,-0.2472,-0.2481,-0.2487,-0.2513,-0.2521,-0.2567,-0.2543,-0.2542,-0.2551,-0.2548,-0.2535,-0.2531,-0.2518,-0.2528,-0.2528,-0.2541,-0.2504,-0.2554,-0.2556,-0.2559,-0.2596,-0.2602,-0.2607,0,0,0,0,0,-0.2469,-0.2487,-0.2488,-0.2495,-0.2531,-0.2569,-0.2573,-0.257,-0.2553,-0.2563,-0.2554,-0.2531,-0.2543,-0.2529,-0.2529,-0.2542,-0.2552,-0.2556,-0.2558,-0.2593,-0.2601,-0.2607,0,0,0,0,0,0,-0.2449,-0.2487,-0.2488,-0.2514,-0.2541,-0.2565,-0.2573,-0.2574,-0.2577,-0.2568,-0.255,-0.2547,-0.2562,-0.2553,-0.2538,-0.2567,-0.2544,-0.2547,-0.2571,-0.2577,-0.2583,-0.2575,-0.2505,0,0,0,0,0,-0.2451,-0.2471,-0.2507,-0.2526,-0.2541,-0.2557,-0.2569,-0.2574,-0.2584,-0.2583,-0.2576,-0.2571,-0.2578,-0.2576,-0.2581,-0.2599,-0.2569,-0.2608,-0.2614,-0.2619,-0.2614,-0.2597,-0.26,-0.257,-0.257,-0.257,0,0,-0.2446,-0.247,-0.2479,-0.2523,-0.2538,-0.2572,-0.2559,-0.2586,-0.2606,-0.2581,-0.2595,-0.2593,-0.2589,-0.2608,-0.2613,-0.2598,-0.261,-0.2623,-0.2627,-0.2619,-0.26,-0.2603,-0.2605,-0.2572,-0.2571,-0.2571,0,0,-0.2454,-0.2471,-0.2493,-0.2523,-0.256,-0.2579,-0.2588,-0.2618,-0.2621,-0.2647,-0.2632,-0.2635,-0.2647,-0.2644,-0.2645,-0.2686,-0.2643,-0.2693,-0.271,-0.2694,-0.2696,-0.2697,-0.2649,-0.2645,-0.2692,-0.2692,-0.2692,0,-0.2444,-0.2481,-0.2504,-0.2541,-0.2565,-0.2583,-0.2617,-0.2635,-0.2661,-0.2666,-0.2654,-0.2669,-0.2663,-0.268,-0.2694,-0.2696,-0.2671,-0.2682,-0.2699,-0.27,-0.27,-0.2651,-0.2646,-0.2694,-0.2694,-0.2694,-0.2694,0,-0.2474,-0.2506,-0.2523,-0.2573,-0.2604,-0.2637,-0.2673,-0.2693,-0.2698,-0.2709,-0.2726,-0.272,-0.2723,-0.2729,-0.2723,-0.2732,-0.2706,-0.2709,-0.2676,-0.2705,-0.2651,-0.2646,-0.2698,-0.2697,-0.2696,-0.2696,0,0,-0.2438,-0.2527,-0.2529,-0.2558,-0.2625,-0.265,-0.2694,-0.2734,-0.2745,-0.2764,-0.2771,-0.2787,-0.2774,-0.2774,-0.2766,-0.2753,-0.273,-0.2735,-0.2733,-0.2676,-0.2671,-0.2561,-0.2543,-0.2738,-0.2738,-0.2738,-0.2626,0,-0.2449,-0.2516,-0.2561,-0.2616,-0.2652,-0.2695,-0.2731,-0.2768,-0.2783,-0.2794,-0.2793,-0.2797,-0.2796,-0.2788,-0.2782,-0.2747,-0.2721,-0.2758,-0.266,-0.2657,-0.2547,-0.2536,-0.2375,-0.2254,-0.262,-0.2619,-0.2619,0,-0.2453,-0.2501,-0.256,-0.2637,-0.2655,-0.269,-0.2737,-0.2775,-0.2806,-0.2815,-0.2824,-0.2819,-0.2811,-0.2799,-0.2748,-0.2773,-0.2724,-0.269,-0.2685,-0.2563,-0.2536,-0.2289,-0.223,-0.2609,-0.261,-0.2611,-0.2611,0,-0.2401,-0.2493,-0.2536,-0.2565,-0.2657,-0.2681,-0.2722,-0.2769,-0.2793,-0.2817,-0.2822,-0.2821,-0.28,-0.2767,-0.2701,-0.2726,-0.2619,-0.2644,-0.2492,-0.2483,-0.2314,-0.229,-0.2593,-0.2593,-0.2593,-0.2594,-0.2594,0,-0.2387,-0.2416,-0.2512,-0.2533,-0.2571,-0.2649,-0.268,-0.272,-0.2768,-0.278,-0.2818,-0.28,-0.2792,-0.2736,-0.269,-0.2554,-0.2606,-0.2476,-0.2446,-0.2322,-0.2302,-0.2593,-0.2595,-0.2589,-0.259,-0.2591,-0.2592,0,-0.2311,-0.2382,-0.2429,-0.2522,-0.2546,-0.2566,-0.2652,-0.2678,-0.2732,-0.2744,-0.2751,-0.2769,-0.2687,-0.2648,-0.2561,-0.2509,-0.2411,-0.2349,-0.2185,-0.2137,-0.2289,-0.2295,-0.2175,-0.217,-0.2166,-0.2162,-0.2159,0,-0.2276,-0.2294,-0.2387,-0.2414,-0.2452,-0.2503,-0.2543,-0.2633,-0.2663,-0.2705,-0.2698,-0.2644,-0.2553,-0.2387,-0.2278,-0.214,-0.2257,-0.1941,-0.1964,-0.2263,-0.2246,-0.2258,-0.2268,-0.1751,-0.1745,-0.174,-0.1736,0,-0.2188,-0.2221,-0.2256,-0.2313,-0.2359,-0.2407,-0.2468,-0.2477,-0.2569,-0.2562,-0.2513,-0.2436,-0.2296,-0.2061,-0.1908,-0.1829,-0.1957,-0.1835,-0.2174,-0.1889,-0.1856,-0.1843,-0.1868,-0.1692,-0.1697,-0.17,-0.1702,-0.1704,-0.2097,-0.2096,-0.2144,-0.2184,-0.2237,-0.2253,-0.2225,-0.228,-0.2252,-0.2183,-0.2256,-0.2062,-0.2044,-0.1672,-0.1564,-0.1477,-0.1617,-0.1575,-0.1594,-0.1617,-0.1595,-0.1557,-0.1331,-0.1333,-0.1335,-0.1337,-0.1338,0,-0.1961,-0.1982,-0.2017,-0.2029,-0.2011,-0.2104,-0.213,-0.2052,-0.193,-0.1883,-0.1791,-0.1564,-0.1389,-0.1353,-0.1133,-0.1102,-0.1129,-0.1079,-0.1128,-0.117,-0.1208,-0.117,-0.0791,-0.079,-0.0788,-0.0787,0,0,-0.1892,-0.186,-0.188,-0.1785,-0.1796,-0.1719,-0.1694,-0.1567,-0.1484,-0.1289,-0.1168,-0.1256,-0.1265,-0.1021,-0.0983,-0.0829,-0.0986,-0.0786,-0.1221,-0.1316,-0.1351,-0.1486,-0.1473,0,0,0,0,0]},{"header":{"parameterUnit":"m.s-1","parameterCategory":2,"la1":30.2991,"la2":30.254,"lo1":-89.0895,"lo2":-89.0444,"dy":0.0017,"dx":0.0017,"nx":28,"ny":28,"refTime":"2026-01-02T03:00:00:Z","depth":"2","parameterNumber":3,"parameterNumberName":"V-component_of_CURRENTS"},"data":[0,0,0,0,0,0,0,0,0,0,0,0,0,0,0,0,0,0,0,0,0,0,0,0,0,0,0,0,0,0,0,0,0,0,0,0,0,0,0,0,0,0,0,0,0,0,0,0,0,0,0,0,0,0,0,0,0,0,-0.0203,-0.0203,0,-0.0121,-0.012,-0.0119,-0.0056,-0.0055,-0.0055,-0.0054,0.0079,0.0082,0.0085,0,0,0,0,0,0,0,0,0,0,0,0,0,-0.0252,-0.0252,-0.0203,-0.0203,-0.0202,-0.0121,-0.012,-0.0119,-0.0056,-0.0055,-0.0055,-0.0054,0.0078,0.0082,0.0085,0,0,0,0,0,0,0,0,0,0,0,0,0,-0.0205,-0.0252,-0.0204,-0.0162,-0.0157,-0.0122,-0.012,-0.0118,-0.0056,-0.0055,-0.0054,-0.0054,0.0077,0.0081,0.0086,0.0102,0,0,0.01,0.0102,0,0,0,0,0,0,0,0,-0.0208,-0.0203,-0.0169,-0.0165,-0.016,-0.01,-0.0089,-0.0043,-0.0056,-0.0092,-0.0054,-0.0054,0.0022,0.0031,0.0047,0.0108,0.0114,0.0101,0.0104,0.0106,0.0107,0,0,0,0,0,0,0,-0.0211,-0.0206,-0.0169,-0.0168,-0.0162,-0.0129,-0.0122,-0.0079,-0.0037,-0.0089,-0.0085,-0.0079,0.0025,0.0043,0.0051,0.0116,0.0101,0.0105,0.0108,0.011,0.0216,0.0215,0,0,0,0,0,0,-0.0229,-0.021,-0.0172,-0.0167,-0.0185,-0.0129,-0.0121,-0.0118,-0.0039,-0.0027,-0.008,-0.0076,0.0034,0.0046,0.0056,0.0087,0.0106,0.011,0.0113,0.0216,0.0216,0.0215,0,0,0,0,0,0,-0.023,-0.0226,-0.0175,-0.0187,-0.0179,-0.013,-0.0126,-0.0117,-0.0098,-0.0032,-0.0019,-0.0071,0.0035,0.005,0.0093,0.0092,0.0112,0.0116,0.0216,0.0216,0.0215,0.0144,0,0,0,0,0,0,-0.0232,-0.0227,-0.0233,-0.0189,-0.0179,-0.0163,-0.0127,-0.0116,-0.0097,-0.0092,-0.0021,-0.0008,0.0037,0.0086,0.0098,0.0099,0.012,0.0216,0.0216,0.0216,0.0146,0.0141,0.0137,0,0,0,0,0,-0.0234,-0.0249,-0.0234,-0.0229,-0.0188,-0.0164,-0.0156,-0.0116,-0.0097,-0.0096,-0.0045,-0.001,0.0094,0.0089,0.0104,0.0106,0.0216,0.0216,0.0216,0.0148,0.0142,0.0137,0,0,0,0,0,0,-0.0275,-0.0243,-0.0225,-0.023,-0.0202,-0.0154,-0.0151,-0.0123,-0.0082,-0.0075,-0.001,0.0007,0.0044,0.0084,0.0077,0.0137,0.0161,0.0163,0.0104,0.0099,0.0095,0.0081,0.0124,0,0,0,0,0,-0.0287,-0.0288,-0.025,-0.0254,-0.0244,-0.0198,-0.0183,-0.0157,-0.0116,-0.0097,-0.0047,0.0007,0.0054,0.0083,0.0127,0.016,0.0211,0.0171,0.0167,0.0163,0.0161,0.024,0.0242,0.0215,0.0215,0.0215,0,0,-0.0303,-0.0287,-0.0287,-0.0262,-0.0237,-0.0231,-0.0187,-0.0172,-0.0161,-0.0089,-0.0059,-0.0009,0.0058,0.0094,0.0115,0.0129,0.0196,0.0162,0.0158,0.0159,0.024,0.0243,0.0245,0.0215,0.0215,0.0215,0,0,-0.0343,-0.0322,-0.0338,-0.032,-0.0292,-0.026,-0.026,-0.0215,-0.0188,-0.0156,-0.01,-0.0049,0.0016,0.0069,0.0104,0.0102,0.0166,0.0113,0.0084,0.016,0.0163,0.0167,0.0227,0.0237,0.0115,0.0115,0.0114,0,-0.0365,-0.0377,-0.0338,-0.0348,-0.0339,-0.0279,-0.029,-0.0255,-0.02,-0.0174,-0.0158,-0.0046,0.0006,0.0068,0.0065,0.0092,0.014,0.0097,0.0154,0.0159,0.0163,0.0225,0.0236,0.0111,0.0111,0.0112,0.0112,0,-0.0414,-0.0421,-0.0429,-0.0418,-0.0401,-0.0402,-0.0351,-0.0325,-0.0284,-0.0239,-0.0176,-0.0101,-0.0031,-0.0008,0.0027,0.0085,0.0108,0.0135,0.0165,0.0161,0.0227,0.024,0.0106,0.0107,0.0108,0.0109,0,0,-0.0469,-0.0466,-0.0468,-0.0476,-0.044,-0.0432,-0.0407,-0.0363,-0.0336,-0.0275,-0.0233,-0.0152,-0.0101,-0.0059,0.0001,0.0065,0.0133,0.0104,0.011,0.0158,0.0293,0.0336,0.0355,0.0169,0.0171,0.0173,0.0322,0,-0.0519,-0.0563,-0.0536,-0.056,-0.0576,-0.0512,-0.0491,-0.0438,-0.0375,-0.0317,-0.0223,-0.0164,-0.0121,-0.0087,-0.0017,0.0099,0.0164,0.0089,0.0294,0.03,0.0335,0.0371,0.0299,0.0429,0.0335,0.0337,0.0339,0,-0.0577,-0.0599,-0.0643,-0.0633,-0.063,-0.0627,-0.0572,-0.0544,-0.0439,-0.0387,-0.0303,-0.0224,-0.0121,-0.0088,0.0107,0.0057,0.0162,0.025,0.0259,0.0335,0.0369,0.0421,0.0457,0.0361,0.0359,0.0358,0.0356,0,-0.0647,-0.0667,-0.0707,-0.0708,-0.0686,-0.0681,-0.0655,-0.0569,-0.0534,-0.0428,-0.038,-0.0249,-0.0166,-0.0028,0.015,0.0133,0.0369,0.0376,0.0515,0.0519,0.0517,0.0518,0.0513,0.0512,0.0512,0.0512,0.0511,0,-0.0717,-0.0745,-0.0746,-0.0772,-0.08,-0.0751,-0.0743,-0.069,-0.0601,-0.0536,-0.0425,-0.0334,-0.0145,0.0013,0.0152,0.0381,0.0379,0.0522,0.0569,0.0489,0.0486,0.0473,0.0466,0.0517,0.0516,0.0515,0.0514,0,-0.079,-0.0793,-0.084,-0.0841,-0.0841,-0.0861,-0.082,-0.0795,-0.0702,-0.0611,-0.0579,-0.0383,-0.0161,0.0028,0.0283,0.0403,0.0599,0.0676,0.0563,0.0594,0.0692,0.068,0.0848,0.0851,0.0853,0.0855,0.0857,0,-0.0832,-0.0869,-0.0907,-0.0936,-0.0941,-0.0953,-0.0947,-0.0865,-0.0816,-0.062,-0.0569,-0.0346,-0.014,0.0232,0.0443,0.0697,0.0696,0.0788,0.075,0.0702,0.0731,0.0715,0.07,0.0714,0.0715,0.0715,0.0715,0,-0.091,-0.0923,-0.0963,-0.1028,-0.1047,-0.1033,-0.1005,-0.0987,-0.0843,-0.0733,-0.0503,-0.0324,0.0026,0.0302,0.06,0.0729,0.0736,0.0807,0.0813,0.0639,0.0589,0.0613,0.06,0.0719,0.0719,0.0718,0.0718,0.0718,-0.0956,-0.1007,-0.1056,-0.1105,-0.1106,-0.1057,-0.1089,-0.0998,-0.0888,-0.0719,-0.0475,-0.0196,0.004,0.046,0.0664,0.0821,0.0836,0.0868,0.0862,0.0856,0.0812,0.077,0.0925,0.0925,0.0926,0.0927,0.0927,0,-0.1006,-0.1052,-0.112,-0.1156,-0.1186,-0.1134,-0.1083,-0.1119,-0.1007,-0.0713,-0.0473,-0.0127,0.0191,0.0424,0.0684,0.0872,0.0817,0.0889,0.0775,0.0772,0.0768,0.0715,0.0805,0.0805,0.0805,0.0806,0,0,-0.1032,-0.111,-0.1141,-0.1201,-0.1227,-0.1264,-0.1252,-0.1185,-0.1022,-0.0763,-0.0488,-0.0189,0.0182,0.0336,0.0547,0.0691,0.0678,0.0688,0.0765,0.0601,0.0595,0.0735,0.0647,0,0,0,0,0]}],[{"header":{"parameterUnit":"m.s-1","parameterCategory":2,"la1":30.2991,"la2":30.254,"lo1":-89.0895,"lo2":-89.0444,"dy":0.0017,"dx":0.0017,"nx":28,"ny":28,"refTime":"2026-01-02T03:00:00:Z","depth":"4","parameterNumber":2,"parameterNumberName":"U-component_of_CURRENTS"},"data":[0,0,0,0,0,0,0,0,0,0,0,0,0,0,0,0,0,0,0,0,0,0,0,0,0,0,0,0,0,0,0,0,0,0,0,0,0,0,0,0,0,0,0,0,0,0,0,0,0,0,0,0,0,0,0,0,0,0,-0.1802,-0.1803,0,-0.1884,-0.1884,-0.1885,-0.1927,-0.1927,-0.1928,-0.1928,-0.1991,-0.1993,-0.1994,0,0,0,0,0,0,0,0,0,0,0,0,0,-0.1681,-0.1683,-0.1802,-0.1803,-0.1804,-0.1884,-0.1884,-0.1885,-0.1927,-0.1927,-0.1928,-0.1928,-0.1991,-0.1992,-0.1994,0,0,0,0,0,0,0,0,0,0,0,0,0,-0.1743,-0.1683,-0.1802,-0.1836,-0.184,-0.1883,-0.1884,-0.1886,-0.1927,-0.1927,-0.1928,-0.1928,-0.199,-0.1992,-0.1994,-0.2002,0,0,-0.2001,-0.2002,0,0,0,0,0,0,0,0,-0.174,-0.1747,-0.183,-0.1834,-0.1838,-0.1897,-0.1865,-0.1924,-0.1927,-0.1892,-0.1928,-0.1928,-0.1959,-0.1964,-0.1976,-0.2004,-0.2007,-0.2001,-0.2003,-0.2004,-0.2004,0,0,0,0,0,0,0,-0.1735,-0.1744,-0.1832,-0.1831,-0.1836,-0.1847,-0.1856,-0.1877,-0.1921,-0.1895,-0.1899,-0.1911,-0.1961,-0.1974,-0.1978,-0.2008,-0.2001,-0.2003,-0.2005,-0.2006,-0.2122,-0.2124,0,0,0,0,0,0,-0.1729,-0.174,-0.183,-0.1835,-0.1791,-0.1849,-0.1859,-0.1876,-0.1921,-0.1929,-0.1911,-0.1913,-0.197,-0.1975,-0.198,-0.2061,-0.2004,-0.2006,-0.2007,-0.212,-0.2122,-0.2124,0,0,0,0,0,0,-0.1726,-0.1737,-0.1826,-0.179,-0.1803,-0.1851,-0.187,-0.1878,-0.192,-0.1933,-0.1941,-0.1948,-0.197,-0.1977,-0.2029,-0.2061,-0.2007,-0.2009,-0.2118,-0.2121,-0.2123,-0.2178,0,0,0,0,0,0,-0.1723,-0.1735,-0.176,-0.179,-0.1805,-0.1874,-0.187,-0.1879,-0.1926,-0.193,-0.1967,-0.1972,-0.1971,-0.2026,-0.2031,-0.2063,-0.2011,-0.2116,-0.2119,-0.2123,-0.2174,-0.2182,-0.2189,0,0,0,0,0,-0.1718,-0.1746,-0.176,-0.1772,-0.1832,-0.1875,-0.1884,-0.1917,-0.1928,-0.1954,-0.1982,-0.1972,-0.205,-0.203,-0.2035,-0.2068,-0.2114,-0.2118,-0.2122,-0.2171,-0.2181,-0.2189,0,0,0,0,0,0,-0.1708,-0.1754,-0.177,-0.1812,-0.1851,-0.1884,-0.1916,-0.1935,-0.1979,-0.1991,-0.1997,-0.2005,-0.2061,-0.2061,-0.2037,-0.2112,-0.208,-0.2085,-0.2115,-0.2124,-0.2132,-0.212,-0.2012,0,0,0,0,0,-0.1716,-0.1751,-0.1792,-0.1829,-0.1851,-0.1889,-0.1916,-0.1941,-0.1976,-0.1997,-0.2023,-0.2051,-0.2077,-0.2098,-0.2121,-0.2165,-0.2135,-0.219,-0.2198,-0.2204,-0.2199,-0.219,-0.2196,-0.2137,-0.2137,-0.2137,0,0,-0.1723,-0.1754,-0.1775,-0.183,-0.1863,-0.1904,-0.1907,-0.1959,-0.1999,-0.1996,-0.2065,-0.2082,-0.2096,-0.2145,-0.217,-0.2152,-0.2204,-0.2209,-0.2214,-0.2206,-0.2195,-0.22,-0.2205,-0.214,-0.214,-0.2139,0,0,-0.1743,-0.1782,-0.1816,-0.1853,-0.1911,-0.1936,-0.1958,-0.2011,-0.2043,-0.2105,-0.2111,-0.2147,-0.2199,-0.2209,-0.2219,-0.2283,-0.2246,-0.23,-0.2329,-0.2321,-0.2325,-0.2328,-0.2287,-0.2286,-0.2302,-0.2303,-0.2303,0,-0.1752,-0.1798,-0.1833,-0.1875,-0.1912,-0.1953,-0.1998,-0.2037,-0.2102,-0.2128,-0.2137,-0.2208,-0.2223,-0.2263,-0.2289,-0.2298,-0.2278,-0.2291,-0.2328,-0.2331,-0.2333,-0.229,-0.2289,-0.2306,-0.2305,-0.2305,-0.2305,0,-0.1786,-0.1839,-0.1864,-0.1929,-0.1973,-0.2022,-0.2075,-0.2125,-0.2167,-0.2197,-0.226,-0.2281,-0.2315,-0.2333,-0.2334,-0.2366,-0.234,-0.2337,-0.2299,-0.2342,-0.2295,-0.2292,-0.231,-0.2309,-0.2308,-0.2307,0,0,-0.1759,-0.1867,-0.1879,-0.1921,-0.2009,-0.2043,-0.2117,-0.2181,-0.2218,-0.2281,-0.2319,-0.2375,-0.2381,-0.2393,-0.2399,-0.2398,-0.2397,-0.2382,-0.238,-0.2329,-0.2358,-0.2199,-0.2179,-0.2405,-0.2405,-0.2405,-0.2313,0,-0.1778,-0.186,-0.1914,-0.1997,-0.2042,-0.2109,-0.2167,-0.2231,-0.228,-0.2327,-0.2355,-0.2395,-0.2406,-0.2422,-0.2428,-0.2406,-0.2395,-0.2421,-0.2333,-0.233,-0.2174,-0.2173,-0.2406,-0.2311,-0.231,-0.231,-0.2309,0,-0.1783,-0.1842,-0.1927,-0.203,-0.2056,-0.2114,-0.2202,-0.2261,-0.233,-0.2365,-0.2409,-0.2425,-0.2447,-0.2444,-0.2421,-0.244,-0.2406,-0.238,-0.2376,-0.2203,-0.2165,-0.2263,-0.2303,-0.2304,-0.2304,-0.2305,-0.2305,0,-0.1726,-0.1846,-0.1915,-0.1953,-0.2074,-0.2126,-0.2191,-0.2273,-0.2315,-0.2385,-0.2408,-0.244,-0.2446,-0.243,-0.2388,-0.241,-0.2331,-0.2349,-0.2169,-0.2156,-0.2304,-0.2302,-0.2321,-0.2321,-0.2321,-0.2321,-0.2322,0,-0.1703,-0.176,-0.19,-0.1934,-0.2008,-0.2106,-0.2177,-0.2241,-0.2321,-0.2342,-0.242,-0.2414,-0.2445,-0.2408,-0.2378,-0.224,-0.2319,-0.2154,-0.2119,-0.2329,-0.233,-0.23,-0.2299,-0.2318,-0.2319,-0.2319,-0.232,0,-0.1619,-0.1718,-0.1799,-0.1939,-0.1983,-0.2033,-0.2162,-0.2187,-0.2293,-0.2319,-0.234,-0.2389,-0.2327,-0.2318,-0.226,-0.2192,-0.2101,-0.2036,-0.223,-0.2211,-0.1937,-0.194,-0.1821,-0.1815,-0.1809,-0.1805,-0.1801,0,-0.1579,-0.1617,-0.1773,-0.1805,-0.1872,-0.1968,-0.2007,-0.2147,-0.216,-0.2269,-0.2239,-0.2243,-0.2246,-0.2019,-0.2048,-0.1943,-0.1931,-0.1876,-0.1936,-0.1906,-0.1885,-0.1897,-0.1907,-0.1792,-0.1791,-0.1789,-0.1788,0,-0.1488,-0.156,-0.162,-0.1677,-0.1738,-0.1792,-0.1864,-0.1873,-0.1999,-0.2134,-0.2071,-0.2036,-0.1952,-0.1889,-0.1809,-0.1753,-0.1911,-0.1819,-0.1832,-0.1888,-0.1869,-0.1856,-0.1873,-0.1769,-0.1772,-0.1773,-0.1774,0,-0.1409,-0.1419,-0.1484,-0.1513,-0.157,-0.1551,-0.1645,-0.1654,-0.1704,-0.1855,-0.1824,-0.1845,-0.1914,-0.1786,-0.1718,-0.1636,-0.1627,-0.1592,-0.1616,-0.1638,-0.1621,-0.1574,-0.1331,0,0,0,0,0,-0.1316,-0.1287,-0.1299,-0.1314,-0.1355,-0.1381,-0.1488,-0.1585,-0.1744,-0.1642,-0.1735,-0.1658,-0.158,-0.1593,-0.1463,-0.1615,-0.1616,-0.146,-0.1586,-0.1664,-0.1686,-0.1684,0,0,0,0,0,0,-0.1247,-0.1256,-0.1233,-0.1106,-0.1081,-0.11,-0.1166,-0.1296,-0.1258,-0.144,-0.1389,-0.1545,-0.1466,-0.1599,-0.1418,-0.1421,-0.1465,-0.1501,-0.1496,-0.1651,-0.1671,-0.1689,-0.1695,0,0,0,0,0]},{"header":{"parameterUnit":"m.s-1","parameterCategory":2,"la1":30.2991,"la2":30.254,"lo1":-89.0895,"lo2":-89.0444,"dy":0.0017,"dx":0.0017,"nx":28,"ny":28,"refTime":"2026-01-02T03:00:00:Z","depth":"4","parameterNumber":3,"parameterNumberName":"V-component_of_CURRENTS"},"data":[0,0,0,0,0,0,0,0,0,0,0,0,0,0,0,0,0,0,0,0,0,0,0,0,0,0,0,0,0,0,0,0,0,0,0,0,0,0,0,0,0,0,0,0,0,0,0,0,0,0,0,0,0,0,0,0,0,0,-0.0227,-0.0226,0,-0.017,-0.0169,-0.0169,-0.0125,-0.0125,-0.0125,-0.0124,-0.0021,-0.0018,-0.0016,0,0,0,0,0,0,0,0,0,0,0,0,0,-0.0259,-0.0259,-0.0227,-0.0226,-0.0226,-0.017,-0.0169,-0.0168,-0.0125,-0.0125,-0.0124,-0.0124,-0.0021,-0.0018,-0.0015,0,0,0,0,0,0,0,0,0,0,0,0,0,-0.0226,-0.0259,-0.0227,-0.0199,-0.0196,-0.0171,-0.0169,-0.0168,-0.0125,-0.0125,-0.0124,-0.0124,-0.0022,-0.0019,-0.0015,0.0001,0,0,-0.0003,-0.0002,0,0,0,0,0,0,0,0,-0.0228,-0.0225,-0.0203,-0.0201,-0.0197,-0.0156,-0.0143,-0.011,-0.0125,-0.015,-0.0124,-0.0124,-0.0063,-0.0056,-0.0044,0.0006,0.001,-0.0003,-0.0001,0.0001,0.0002,0,0,0,0,0,0,0,-0.0231,-0.0227,-0.0203,-0.0203,-0.0199,-0.0176,-0.0171,-0.0136,-0.0107,-0.0148,-0.0145,-0.0142,-0.0061,-0.0048,-0.0041,0.0012,-0.0003,0.0,0.0003,0.0004,0.0091,0.0091,0,0,0,0,0,0,-0.0244,-0.0229,-0.0204,-0.0201,-0.0214,-0.0176,-0.017,-0.0168,-0.0108,-0.01,-0.0142,-0.014,-0.0055,-0.0046,-0.0037,-0.0011,0.0001,0.0004,0.0007,0.0091,0.0091,0.0091,0,0,0,0,0,0,-0.0245,-0.0242,-0.0207,-0.0215,-0.0209,-0.0176,-0.0174,-0.0167,-0.0155,-0.0105,-0.0095,-0.0138,-0.0054,-0.0043,-0.0008,-0.0007,0.0006,0.001,0.009,0.0091,0.0091,0.0039,0,0,0,0,0,0,-0.0246,-0.0243,-0.0248,-0.0216,-0.0209,-0.0199,-0.0174,-0.0166,-0.0155,-0.0151,-0.0097,-0.0087,-0.0053,-0.0014,-0.0005,-0.0001,0.0013,0.009,0.009,0.0091,0.0041,0.0038,0.0035,0,0,0,0,0,-0.0247,-0.0258,-0.0249,-0.0246,-0.0217,-0.02,-0.0194,-0.0168,-0.0155,-0.0155,-0.0116,-0.0089,-0.0007,-0.0011,0.0,0.0005,0.009,0.009,0.0091,0.0042,0.0038,0.0035,0,0,0,0,0,0,-0.0276,-0.0254,-0.0243,-0.0247,-0.0229,-0.0194,-0.0193,-0.0173,-0.0143,-0.0138,-0.0088,-0.0075,-0.0046,-0.0014,-0.002,0.003,0.0046,0.0048,0.0006,0.0002,-0.0001,-0.0012,0.0016,0,0,0,0,0,-0.0286,-0.0288,-0.0261,-0.0265,-0.0259,-0.0226,-0.0217,-0.0199,-0.0168,-0.0154,-0.0116,-0.0074,-0.0036,-0.0014,0.0021,0.0049,0.0087,0.006,0.0057,0.0054,0.0053,0.0112,0.0114,0.0091,0.0091,0.0091,0,0,-0.0299,-0.0288,-0.0289,-0.0272,-0.0255,-0.025,-0.022,-0.021,-0.0202,-0.0147,-0.0125,-0.0086,-0.0033,-0.0002,0.0014,0.0025,0.0078,0.0054,0.0051,0.0052,0.0112,0.0114,0.0117,0.0091,0.0091,0.0091,0,0,-0.0327,-0.0315,-0.0326,-0.0314,-0.0296,-0.0273,-0.0274,-0.0241,-0.0223,-0.0198,-0.0155,-0.0114,-0.0063,-0.0019,0.0009,0.0011,0.0056,0.0018,-0.0,0.0057,0.0059,0.0062,0.0104,0.011,0.0021,0.0021,0.0021,0,-0.0345,-0.0353,-0.0327,-0.0333,-0.0329,-0.0287,-0.0296,-0.027,-0.023,-0.0212,-0.02,-0.0112,-0.0068,-0.0017,-0.0017,0.0004,0.0037,0.0008,0.0052,0.0056,0.006,0.0102,0.011,0.0018,0.0019,0.0019,0.0019,0,-0.0377,-0.0384,-0.039,-0.0383,-0.0372,-0.0375,-0.0338,-0.0321,-0.0293,-0.0261,-0.0212,-0.0149,-0.0096,-0.0075,-0.0044,0.0003,0.0017,0.0038,0.006,0.0059,0.0104,0.0113,0.0015,0.0016,0.0016,0.0017,0,0,-0.0415,-0.0415,-0.0418,-0.0427,-0.0401,-0.0398,-0.0381,-0.0351,-0.0337,-0.0287,-0.0259,-0.0187,-0.0149,-0.0115,-0.0065,-0.0011,0.0041,0.0018,0.0022,0.0055,0.0157,0.0133,0.0141,0.0068,0.007,0.0071,0.0175,0,-0.045,-0.0483,-0.0464,-0.0487,-0.05,-0.0457,-0.0445,-0.041,-0.0367,-0.0328,-0.025,-0.0207,-0.0164,-0.0138,-0.0079,0.0013,0.0065,0.001,0.0157,0.0161,0.0137,0.0151,0.0076,0.0182,0.0184,0.0186,0.0187,0,-0.0487,-0.0506,-0.0543,-0.0544,-0.0545,-0.0549,-0.052,-0.0501,-0.0429,-0.0392,-0.0327,-0.0265,-0.0178,-0.0146,0.001,-0.0029,0.0055,0.0127,0.0133,0.0136,0.0155,0.0187,0.0205,0.0203,0.0202,0.0201,0.02,0,-0.0535,-0.0557,-0.0592,-0.0595,-0.0589,-0.0594,-0.0583,-0.0528,-0.0509,-0.0432,-0.0404,-0.0295,-0.0232,-0.0117,0.0027,0.0021,0.0198,0.0211,0.027,0.0269,0.0282,0.0279,0.032,0.0319,0.0319,0.0319,0.0319,0,-0.0577,-0.0605,-0.0624,-0.0646,-0.0685,-0.0653,-0.0666,-0.0632,-0.0576,-0.0549,-0.0446,-0.039,-0.022,-0.0099,0.002,0.0171,0.0196,0.0269,0.0298,0.0257,0.0249,0.0289,0.0284,0.0323,0.0322,0.0321,0.0321,0,-0.062,-0.0631,-0.0681,-0.0702,-0.0714,-0.0742,-0.074,-0.0742,-0.0671,-0.0631,-0.0609,-0.045,-0.0286,-0.0122,0.0084,0.0162,0.0307,0.0355,0.0291,0.0314,0.0341,0.0332,0.0426,0.0426,0.0426,0.0426,0.0427,0,-0.0642,-0.0673,-0.0738,-0.0783,-0.0801,-0.0835,-0.0861,-0.0807,-0.0795,-0.0662,-0.0645,-0.0473,-0.0358,-0.0088,0.0088,0.0307,0.0336,0.0396,0.0374,0.0335,0.0354,0.0345,0.0336,0.0427,0.0427,0.0427,0.0427,0,-0.0686,-0.0716,-0.0762,-0.0862,-0.0916,-0.097,-0.0989,-0.0979,-0.0895,-0.0822,-0.0669,-0.0502,-0.031,-0.0092,0.008,0.0238,0.0346,0.0398,0.0398,0.0378,0.0337,0.0353,0.0345,0.0427,0.0427,0.0427,0.0427,0,-0.0721,-0.0772,-0.0846,-0.0925,-0.1016,-0.1088,-0.1083,-0.1041,-0.1003,-0.0828,-0.0771,-0.0534,-0.0371,-0.0126,0.0036,0.0183,0.0218,0.0243,0.0253,0.0255,0.017,0.0091,0.0133,0,0,0,0,0,-0.0747,-0.081,-0.0901,-0.0997,-0.1095,-0.1139,-0.1164,-0.1133,-0.103,-0.094,-0.0848,-0.0661,-0.0369,-0.022,-0.0079,0.0009,0.0215,0.0176,0.024,0.0429,0.0428,0.0355,0,0,0,0,0,0,-0.0769,-0.0859,-0.0907,-0.1049,-0.1118,-0.1218,-0.1239,-0.1174,-0.11,-0.0962,-0.0804,-0.0646,-0.0368,-0.045,-0.0078,-0.0025,0.0027,0.0341,0.0343,0.0429,0.0428,0.0428,0.0353,0,0,0,0,0]}]]